World > North America > United States > Mississippi > Hollandale  

Hollandale, MS Hourly Weather Updates

Feedback E-mail the Weather

Quick Clicks

Hollandale, MS Weather Maps

°F °C°F °C
Hollandale Weather Map
UTC Time: 6/15/2024, 20:57
Your Time:

Hollandale, MS Regional Weather

Expires:202406152100;;075690
ASUS44 KJAN 152010
RWRMS 

MISSISSIPPI HOURLY WEATHER ROUNDUP
NATIONAL WEATHER SERVICE JACKSON MS
300 PM CDT SAT JUN 15 2024

NOTE: "FAIR: INDICATES FEW OR NO CLOUDS BELOW 12,000 FEET WITH NO
SIGNIFICANT WEATHER AND/OR OBSTRUCTIONS TO VISIBILITY.


MSZ001>002-007>008-010>013-018>021-025>028-034>036-152100-
NORTHWEST MISSISSIPPI
  
CITY           SKY/WX    TMP DP  RH WIND       PRES   REMARKS
BATESVILLE     SUNNY     95  64  36 VRB6      29.93F HX  97           
CLARKSDALE       N/A     95 N/A N/A VRB6      29.94F                  
GREENWOOD      MOSUNNY   94  70  45 VRB5      29.93F HX 100           
GREENVILLE     SUNNY     97  70  41 CALM      29.92F HX 103           
OLIVE BRANCH   MOSUNNY   93  68  43 SE6       29.94F HX  97           
OXFORD         MOSUNNY   93  64  38 CALM      29.97S HX  95           
TUNICA         SUNNY     95  70  44 SE8       29.93F HX 101           
WINONA         MOSUNNY   95  68  41 S8        29.94F HX  99           
$$


SKY/WX - Weather  TMP - Temperature  DP - Dew Point  RH - Humidity
WIND - Wind Direction/Speed PRES - Barometric Pressure VSB - Visibility
WCI - Wind Chill Index E13G22 Wind - East Wind 13 mph/Gusts of 22 mph

Trending Headlines

Trending Entertainment Headlines

Hollandale Radar Loop

Use the map search tool if you want to place a location marker on the radar map...

Hollandale Quick Facts

National Two Day Weather Forecast


E-mail the Hollandale Weather Forecast

Voice your opinion or tell us about page issues...